Weather in Bolshoy Chirkley

Russia / Ulyanovsk Oblast     53°08′43″N   47°00′38″E
temp.,
°C
wind,
m/s
gust,
m/s
humid.,
%
clouds,
%
prec.,
mm/h
press.,
hPa
HPBL,
m
17 june, thu
thu1701:00+18nnw412945 0.0 1012383
04:00+16n5119556 0.0 1014359
07:00+16n411865 0.0 1015428
10:00+19nne68586 0.0 1017994
13:00+21n67540 0.0 10191511
16:00+22n56550 0.0 10191610
19:00+19n58695 0.0 1020499
22:00+14nnw38844 0.0 1022168
18 june, fri
fri1801:00+13n4108291 0.0 1022186
04:00+12n388290 0.0 1024174
07:00+14nne410795 0.0 1025347
10:00+17nne57590 0.0 10261108
13:00+19ne46480 0.0 10261487
16:00+20nne46494 0.0 10261540
19:00+18nne36670 0.0 1026358
22:00+13ne22778 0.0 102811
19 june, sat
sat1901:00+12nne117929 0.0 102810
04:00+11n117761 0.0 102910
07:00+14n12719 0.0 1029115
10:00+19nne125610 0.0 1029607
13:00+22nne11485 0.0 10281016
16:00+24n12478 0.0 10271262
19:00+22nnw24680 0.0 1026169
22:00+17nw22791 0.0 102620
20 june, sun
sun2001:00+15wnw22890 0.0 102622
04:00+15wnw33920 0.0 102635
07:00+18nw34830 0.0 1026157
10:00+23nw23670 0.0 1026651
13:00+26nnw33560 0.0 10251396
16:00+26nnw33551 0.0 10241503
19:00+25nnw23690 0.0 1023151
22:00+20nne22850 0.0 102411
21 june, mon
mon2101:00+18nnw11850 0.0 102311
04:00+17nw118938 0.0 102311
07:00+20nnw1283100 0.0 102390
10:00+24n2268100 0.0 1023699
13:00+27ne12553 0.0 10221429
16:00+28nne23506 0.0 10211812
19:00+26nnw24685 0.0 1021169
22:00+20nnw33845 0.0 102136